Satellite: SRMSAT Catalog number: 37841 Epoch time: 12144.38783406 Element set: 155 Inclination: 019.9743 deg RA of node: 152.8731 deg Eccentricity: 0.0011970 Arg of perigee: 276.7691 deg Mean anomaly: 083.1454 deg Mean motion: 14.10139292 rev/day Decay rate: 2.64e-06 rev/day^2 Epoch rev: 3168 Checksum: 297
Satellite: RAX-2 Catalog number: 37853 Epoch time: 12145.79562683 Element set: 185 Inclination: 101.7146 deg RA of node: 175.3312 deg Eccentricity: 0.0247714 Arg of perigee: 057.6799 deg Mean anomaly: 304.8130 deg Mean motion: 14.79824884 rev/day Decay rate: 7.447e-05 rev/day^2 Epoch rev: 3093 Checksum: 331
Satellite: AUBIESAT Catalog number: 37854 Epoch time: 12145.75627352 Element set: 186 Inclination: 101.7154 deg RA of node: 175.4928 deg Eccentricity: 0.0248832 Arg of perigee: 057.4149 deg Mean anomaly: 305.0819 deg Mean motion: 14.80185649 rev/day Decay rate: 7.659e-05 rev/day^2 Epoch rev: 3092 Checksum: 325
Satellite: HRBE Catalog number: 37855 Epoch time: 12144.95652156 Element set: 0200 Inclination: 101.7183 deg RA of node: 174.2914 deg Eccentricity: 0.0249391 Arg of perigee: 059.4706 deg Mean anomaly: 303.0857 deg Mean motion: 14.80041054 rev/day Decay rate: 7.323e-05 rev/day^2 Epoch rev: 03080 Checksum: 276
Satellite: RS-39 Catalog number: 38051 Epoch time: 12145.72500233 Element set: 362 Inclination: 051.6321 deg RA of node: 271.6125 deg Eccentricity: 0.0011747 Arg of perigee: 314.2541 deg Mean anomaly: 183.4089 deg Mean motion: 15.23921389 rev/day Decay rate: 1.0209e-04 rev/day^2 Epoch rev: 1839 Checksum: 274
Satellite: E-STAR Catalog number: 38079 Epoch time: 12145.68107311 Element set: 247 Inclination: 069.4983 deg RA of node: 009.3477 deg Eccentricity: 0.0750111 Arg of perigee: 277.4780 deg Mean anomaly: 074.1940 deg Mean motion: 14.13706713 rev/day Decay rate: 2.6585e-04 rev/day^2 Epoch rev: 1426 Checksum: 304
Satellite: GOLIAT Catalog number: 38085 Epoch time: 12145.01954356 Element set: 226 Inclination: 069.4960 deg RA of node: 011.0423 deg Eccentricity: 0.0753694 Arg of perigee: 278.3938 deg Mean anomaly: 073.2853 deg Mean motion: 14.12723987 rev/day Decay rate: 2.3719e-04 rev/day^2 Epoch rev: 1416 Checksum: 312
Satellite: HORYU-2 Catalog number: 38340 Epoch time: 12144.32142747 Element set: 0018 Inclination: 098.1772 deg RA of node: 083.9989 deg Eccentricity: 0.0014654 Arg of perigee: 051.5833 deg Mean anomaly: 308.6703 deg Mean motion: 14.69926881 rev/day Decay rate: 3.745e-05 rev/day^2 Epoch rev: 00081 Checksum: 314
/EX
participants (1)
-
Ray Hoad